Simultaneous Nadir Overpasses (SNOs) Predictions

Prediction of SNOs between GOES-16 and NOAA-19 Satellite Orbit:

Table of predicted SNOs for the next 14.0 days since TLE Epoch: 8/12/2023
Index Date Time (GOES-16) GOES-16 Lat,Lon NOAA-19 Lat,Lon Distance(km) Time Diff (sec)
1 08/13/2023 13:56:39 -0.01, -75.22 0.77, -78.71 397.83 80
2 08/14/2023 13:47:15 -0.02, -75.23 0.12, -75.77 62.33 80
3 08/15/2023 13:32:31 -0.02, -75.23 -0.59, -72.84 273.93 80
4 08/18/2023 01:55:22 0.02, -75.25 -0.52, -77.63 271.54 80
5 08/19/2023 01:40:38 0.02, -75.26 0.14, -74.69 65.37 80
6 08/20/2023 01:28:33 0.02, -75.28 0.80, -71.75 402.44 80
7 08/21/2023 14:03:10 -0.02, -75.31 0.91, -79.42 467.85 80
8 08/22/2023 13:51:06 -0.01, -75.33 0.25, -76.47 130.64 80
9 08/23/2023 13:36:22 -0.01, -75.34 -0.41, -73.53 206.65 80
